Justin Berghuis

Jefe de ojeadores - Cambuur
8 Ene 2028
Sábado
Continuar

Personalidad

Adaptabilidad (16) Ambición (15) Controversia (2) Lealtad (19) Presión (3) Profesionalismo (15) Deportividad (12) Temperamento (10)

Perfil

Estilo de dirección Democrático
Licencia Nacional B
Determinación 10
Gestión de personas 11
Motivación 8
Disciplina 3
Satisfacción laboral
98%
Fatiga
0%
Cargo Jefe de ojeadores
Salario 17.0K p/s
Contrato 14.03.2028

Rendimiento

Comportamiento Bueno
Efectividad del entrenamiento
36%
Desarrollo de jugadores
40%
Prevención de lesiones
30%
Implementación táctica
15%

Eventos recientes

Recomendó un objetivo de fichaje ahora
Recomendó un objetivo de fichaje ahora
Recomendó un objetivo de fichaje ahora
Recomendó un objetivo de fichaje ahora
Asistió a una reunión de captación ahora
Asistió a una reunión de captación ahora
Negociación de contrato iniciada ahora
Negociación de contrato iniciada ahora

Actualmente siguiendo

76
Jugador Club Estado Habilidad Confianza Observado Última observación Último voto
Moctar Diop Excelsior Negociando 114 / 122 67% 1 01.01.2028 Aprobar
Dragos Balasa Javor-Matis Negociando 94 / 95 66% 1 01.01.2028 Aprobar
Konstantin Tyukavin Arsenal Negociando 133 / 134 67% 1 01.01.2028 Aprobar
Mats Egbring Heerenveen Activo 99 / 113 41% 1 02.08.2027 -
Caio Vidal FC Copenhagen Negociando 128 / 129 63% 1 01.06.2027 Aprobar
Sam Ringeling Feyenoord Activo 87 / 103 41% 1 25.01.2027 -
Amar Memić Juventude Negociando 127 / 128 62% 1 01.01.2027 Aprobar
Santiago Sanchez Santa Fe Negociando 132 / 132 64% 1 01.01.2027 Aprobar
Relebohile Mofokeng Orlando Pirates Activo 102 / 108 40% 1 29.12.2026 -
Kelly Saravanan Salford City Activo 101 / 119 40% 4 28.12.2026 -
Richard Koné Queens Park Rangers Activo 111 / 129 40% 2 26.12.2026 -
Andrés Martín Racing Santander Activo 130 / 124 40% 2 25.12.2026 -
Brayan Gil Baltika Activo 129 / 115 40% 1 25.12.2026 -
George Hirst Stoke City Activo 125 / 125 40% 1 23.12.2026 Más información
Yeremay Deportivo La Coruña Activo 134 / 143 40% 1 23.12.2026 -
Tommy Conway Middlesbrough Activo 118 / 123 40% 1 19.12.2026 -
Urko Izeta Cádiz Activo 118 / 122 40% 1 19.12.2026 -
Shandre Campbell KV Kortrijk Activo 97 / 116 40% 2 18.12.2026 -
Tommy St. Jago KV Mechelen Activo 108 / 112 40% 2 16.12.2026 -
Myron van Brederode KV Mechelen Activo 133 / 116 40% 2 16.12.2026 -
Ryotaro Araki Sint-Truiden Activo 117 / 116 40% 1 13.12.2026 -
Rumarn Burrell Queens Park Rangers Activo 139 / 119 40% 1 12.12.2026 -
Aune Heggebø West Bromwich Albion Activo 140 / 134 40% 1 12.12.2026 -
Ibrahim Cissoko Zwolle Activo 133 / 131 40% 1 12.12.2026 -
Radja Meunier KV Oostende Activo 110 / 120 40% 1 12.12.2026 -
Maksim Kireev KV Mechelen Activo 125 / 131 40% 1 11.12.2026 -
Ibrahim Sadiq AZ Activo 132 / 127 40% 1 09.12.2026 -
Pau Víctor Estrela da Amadora Activo 137 / 137 40% 2 07.12.2026 Más información
Antoine Colassin Charleroi Activo 125 / 117 40% 3 07.12.2026 Observar
Zico Buurmeester Leganés Activo 115 / 115 40% 1 07.12.2026 -
Mees Rijks Bristol Rovers Activo 113 / 110 40% 2 05.12.2026 -
Zayd El Kandoussi OH Leuven Activo 111 / 108 40% 2 04.12.2026 -
Luka Kulenović Heracles Activo 111 / 123 40% 1 04.12.2026 -
Jalen Hawkins ADO Den Haag Activo 124 / 107 40% 1 03.12.2026 -
Camilo Durán Bloemfontein Celtic Activo 111 / 116 40% 2 02.12.2026 -
Keano Vanrafelghem KV Mechelen Activo 97 / 111 40% 2 26.11.2026 -
Jorge Pascual Granada Activo 146 / 140 40% 1 26.11.2026 -
Lamine Cissé Peterborough United Activo 112 / 130 40% 2 22.11.2026 -
Jay Stansfield Birmingham Activo 121 / 131 40% 1 22.11.2026 -
David Miculescu FCSB Activo 111 / 109 40% 1 20.11.2026 -
Sieben Dewaele Waasland-Beveren Activo 104 / 105 40% 3 19.11.2026 -
Matthew Anderson KV Kortrijk Activo 113 / 111 40% 1 16.11.2026 -
Robert-Jan Vanwesemael Dijon Activo 127 / 118 40% 1 16.11.2026 -
Jakob Napoleon Romsaas Charleroi Activo 125 / 130 40% 1 13.11.2026 -
Wessam Abou Ali Columbus Crew Activo 144 / 140 40% 1 13.11.2026 -
Dejan Joveljić Seattle Sounders Activo 132 / 137 40% 1 09.11.2026 -
Rafiu Durosinmi Racing Genk Activo 132 / 140 40% 2 08.11.2026 -
Daan Heymans Racing Genk Activo 131 / 120 40% 2 06.11.2026 -
Thomas Alderweireld Dijon Activo 129 / 121 40% 1 04.11.2026 -
Thorgan Castagne KV Oostende Activo 137 / 120 40% 1 04.11.2026 -
Thomas Van Den Keybus Westerlo Activo 109 / 108 40% 2 02.11.2026 -
Tyrese Campbell Sheffield United Activo 136 / 131 40% 1 31.10.2026 -
Jovon Makama Norwich City Activo 109 / 134 40% 1 30.10.2026 -
Marin Benko Zadar Activo 105 / 129 40% 2 29.10.2026 -
Oscar Gloukh Ajax Activo 137 / 128 40% 3 27.10.2026 -
Dylan Vente Heerenveen Activo 129 / 115 40% 2 26.10.2026 -
Léandre Kuavita Waasland-Beveren Activo 130 / 120 40% 1 23.10.2026 -
Zinho Castagne KV Oostende Activo 120 / 133 40% 1 23.10.2026 -
Myron Boadu Twente Activo 141 / 138 40% 1 20.10.2026 -
William Balikwisha OH Leuven Activo 116 / 115 40% 1 20.10.2026 -
Kévin Denkey FC Cincinnati Activo 127 / 112 40% 2 17.10.2026 -
Maurice Malone Minnesota United FC Activo 131 / 133 40% 1 17.10.2026 -
Cisse Sandra Westerlo Activo 104 / 126 40% 1 17.10.2026 -
Derrick Kyere Lokeren Activo 105 / 100 40% 2 13.10.2026 -
Jerome Karelse Golden Arrows Activo 94 / 106 40% 1 12.10.2026 -
Dylan Ourega Westerlo Activo 101 / 121 40% 1 12.10.2026 -
Tadeo Allende Inter Miami CF Activo 109 / 117 40% 1 10.10.2026 -
Koen Kostons Zwolle Activo 101 / 123 40% 1 08.10.2026 -
Nicolás Cordero Aldosivi Activo 128 / 111 40% 1 07.10.2026 -
Dávid Strelec Middlesbrough Activo 125 / 130 40% 1 05.10.2026 -
Henok Teklab OH Leuven Activo 133 / 108 40% 2 11.09.2026 -
Ki-Jana Hoever Sparta Prague Activo 112 / 142 40% 1 10.09.2026 -
Chris Lokesa Waasland-Beveren Activo 107 / 126 40% 1 09.09.2026 -
Quinten Timber Crystal Palace Activo 143 / 139 40% 1 08.09.2026 -
Hugo Vetlesen Club Brugge Activo 123 / 119 40% 1 08.09.2026 -
Sven van der Plas PSV Activo 72 / 100 41% 1 24.08.2026 -